Wind_Speed
34 27 25 23 20 22 19 17 15 12 12 16 21 23 23 27 31 34 37 40 42 43 44 45 45 45 44 44 43 44 44 45 45 45 45 45 46 47 46 47 47 47 48
28 26 26 23 20 18 16 15 11 11 16 21 23 24 28 32 34 38 41 42 44 44 45 46 46 47 46 43 42 42 43 43 44 43 43 44 44 43 42 43 44 46 45
24 25 22 18 14 13 12 10 12 17 20 21 23 27 31 35 37 39 40 42 43 45 46 47 47 45 43 42 40 40 40 38 36 35 35 35 35 35 36 38 38 39 39
21 13 12 10 9 8 9 11 14 16 18 22 27 31 34 35 37 39 41 44 47 48 49 47 44 41 39 38 38 38 36 35 34 33 33 32 33 33 33 34 32 33 31
11 7 5 5 6 8 10 11 12 16 21 26 29 32 35 36 38 41 45 48 51 51 50 46 42 41 40 40 39 37 35 34 33 33 32 31 30 29 29 29 29 27 25
4 3 3 6 6 5 7 11 16 21 24 27 31 33 34 38 41 45 49 52 54 52 47 44 42 40 40 38 35 33 31 31 31 32 31 30 28 28 28 27 25 25 26
6 5 6 6 6 9 12 16 19 22 26 28 31 34 36 40 44 48 51 53 53 50 47 42 39 38 37 35 32 31 30 29 28 28 29 27 27 24 25 25 23 22 23
6 6 8 8 11 13 15 17 22 25 28 31 33 36 39 43 47 50 53 54 51 48 43 39 38 37 36 33 31 30 31 31 30 29 26 24 24 23 22 21 19 20 19
6 6 10 12 13 14 17 21 23 26 30 34 37 39 42 45 48 52 53 53 51 47 42 40 38 36 35 33 32 31 31 30 30 29 29 27 22 20 17 16 16 15 14
7 9 11 12 12 18 23 26 27 29 32 35 38 40 43 46 49 51 52 52 50 45 43 41 39 37 35 32 32 32 31 31 30 28 28 28 26 22 19 17 17 17 15
8 10 10 10 16 23 26 25 26 29 32 35 37 40 43 46 49 52 52 49 46 44 43 41 39 37 36 33 32 34 34 32 31 29 28 27 25 23 20 19 18 18 17
8 9 8 12 17 22 26 26 25 28 32 36 39 43 46 49 51 52 52 49 45 44 43 42 39 36 35 33 33 33 32 30 28 26 26 26 25 23 20 19 17 17 17
7 6 8 12 17 21 25 27 28 32 36 38 41 45 48 51 51 50 48 47 46 45 42 40 38 36 35 32 32 31 29 26 25 25 24 26 24 21 19 19 16 15 15
5 6 9 12 17 21 25 29 31 34 36 39 42 45 49 51 50 49 47 45 45 44 43 40 38 36 34 32 29 29 27 24 22 23 23 22 18 16 14 15 13 12 13
5 7 10 13 17 21 25 30 33 35 38 40 43 45 49 49 49 48 47 46 47 45 41 39 36 33 31 28 27 27 25 25 22 19 18 17 16 13 10 9 10 9 10
3 8 11 14 18 22 26 31 35 38 40 42 46 49 51 50 49 49 47 49 46 41 41 40 35 31 28 26 24 25 24 19 19 20 19 17 14 11 7 6 7 8 7
5 8 11 14 18 22 27 31 36 40 42 44 47 50 51 50 50 48 47 47 43 41 40 40 34 29 27 25 23 23 16 18 18 22 22 18 12 8 5 4 4 6 6
5 9 12 14 18 24 28 32 36 40 42 44 46 50 49 49 49 47 47 46 42 40 39 38 32 29 27 24 22 17 16 19 23 22 21 18 13 8 4 3 1 3 5
5 8 13 17 20 25 30 33 36 39 41 45 48 50 49 49 48 47 47 45 41 40 38 36 31 29 26 25 18 16 18 21 20 24 23 19 16 10 5 3 2 4 6
6 11 15 19 23 28 32 35 37 40 42 44 49 50 48 48 47 45 46 45 41 39 36 34 29 28 27 23 18 17 21 21 21 24 20 17 14 14 8 4 5 6 8
10 14 18 22 26 29 33 36 39 42 43 46 51 50 48 48 46 45 44 42 41 39 33 31 27 25 24 21 19 20 23 25 27 23 19 14 11 11 9 7 7 9 11
15 18 21 24 27 30 33 36 39 42 44 47 51 50 49 48 47 45 43 40 39 38 31 29 26 23 21 18 19 22 24 27 22 19 17 15 10 8 9 10 12 13 14
17 20 22 25 27 30 33 36 40 43 44 47 49 49 50 49 46 44 40 37 37 35 29 26 22 21 19 18 20 23 26 24 21 18 17 16 20 19 18 19 21 18 16
19 20 23 26 29 32 34 38 42 43 44 46 47 49 51 50 46 42 39 37 34 33 28 23 18 17 15 16 19 23 25 24 23 19 15 18 16 18 18 17 16 15 17
20 20 24 27 30 33 35 38 40 41 43 44 47 49 51 52 49 43 38 34 32 31 27 20 15 14 12 14 18 22 23 21 20 20 18 19 21 23 23 21 18 18 18
23 22 25 29 32 33 35 38 39 40 42 43 46 48 50 51 48 44 39 37 35 31 23 17 12 11 9 13 16 19 19 17 16 17 19 20 19 19 19 20 20 22 20
Wind_Direction
304 302 301 305 306 309 312 312 309 305 306 315 318 318 318 317 316 315 316 315 313 311 308 305 303 301 299 297 294 291 288 285 283 281 278 277 276 274 274 274 273 272 272
302 296 297 303 305 308 310 313 311 311 316 319 322 322 321 319 319 317 314 313 313 312 311 309 307 305 304 303 299 294 291 288 287 284 282 281 280 279 278 276 274 272 271
297 294 304 304 303 305 314 314 315 315 318 322 323 321 320 320 318 317 317 316 315 315 313 312 312 311 309 305 301 298 295 294 293 291 288 286 284 282 281 280 276 272 273
298 305 298 300 299 304 316 317 315 319 323 321 323 322 319 321 323 322 323 323 322 319 318 319 317 315 310 307 306 304 302 300 298 297 294 291 287 285 283 282 284 278 279
298 302 314 322 316 315 314 322 330 328 325 325 324 326 328 328 327 328 327 325 324 324 324 324 324 319 316 313 311 308 305 302 301 300 298 296 292 289 285 283 278 282 286
341 41 43 329 331 359 359 345 334 331 329 331 333 332 333 331 331 331 329 327 327 327 329 328 323 319 315 316 316 314 309 305 302 300 298 296 294 292 290 288 288 281 285
73 55 30 34 29 10 353 342 338 339 339 338 340 337 337 335 334 331 329 328 328 330 330 327 323 320 320 319 319 318 315 313 310 305 302 299 296 297 296 297 294 287 276
45 49 36 26 12 1 351 350 350 348 348 345 341 340 339 336 333 332 329 329 330 332 332 329 326 324 324 322 321 320 320 320 321 320 314 303 298 298 300 300 301 293 278
22 30 19 18 6 1 357 357 359 355 348 346 345 342 339 335 333 331 330 331 334 333 332 330 326 323 322 323 320 317 317 318 319 321 319 318 309 298 295 300 308 309 295
24 17 19 12 9 7 5 1 357 352 349 346 344 341 339 336 333 332 333 334 335 333 331 329 326 322 319 318 318 316 315 314 314 316 315 316 315 306 294 291 296 302 308
15 14 6 14 15 13 7 360 355 350 346 345 343 342 340 338 335 335 335 335 335 334 332 330 329 326 322 319 316 312 311 311 309 308 309 311 310 308 297 286 286 291 298
10 1 1 13 14 8 1 358 354 351 349 348 348 346 342 340 338 337 336 337 338 335 333 333 333 328 326 325 321 319 318 314 310 306 307 308 309 305 301 293 285 281 287
355 345 10 9 3 358 357 360 357 355 352 351 349 346 343 342 341 340 338 338 337 337 337 335 333 331 330 329 328 327 326 321 316 313 311 311 308 300 292 291 288 280 280
326 351 359 356 355 352 354 358 359 357 353 352 349 346 345 344 343 341 339 339 339 339 336 333 333 334 334 336 335 334 334 331 325 321 319 317 314 303 285 277 279 272 275
324 352 352 352 354 350 352 355 358 356 354 352 350 348 346 346 344 342 342 343 343 343 339 338 337 336 336 337 335 336 337 336 338 341 341 337 332 323 305 270 265 262 262
317 355 356 358 354 354 355 354 356 356 354 352 351 349 348 347 345 343 345 345 348 347 346 348 344 341 341 342 340 340 343 352 354 353 346 331 330 329 320 283 259 255 257
348 358 353 359 355 357 356 354 356 355 353 352 351 349 349 348 346 345 347 348 349 350 351 350 348 347 350 350 348 350 360 0 359 353 352 354 349 341 328 311 270 246 242
5 358 348 350 358 1 360 356 356 353 352 351 350 349 349 348 346 346 347 351 351 351 351 353 352 353 356 359 360 9 6 0 358 3 1 2 359 359 350 339 326 199 198
347 352 349 353 355 358 359 356 353 352 351 350 350 350 350 349 347 346 348 351 352 351 352 355 356 355 360 4 14 12 6 4 8 7 5 9 13 9 8 24 94 146 156
335 352 354 350 353 356 356 353 350 351 351 349 348 350 350 349 348 347 347 350 351 353 353 356 357 357 2 9 15 10 2 359 356 355 357 4 9 18 27 63 108 129 139
340 346 349 350 349 351 352 349 348 350 350 348 348 349 349 348 349 348 349 349 348 354 353 357 358 359 6 7 9 5 1 356 354 358 5 8 15 13 29 76 107 120 128
332 337 344 345 342 344 347 345 347 348 349 347 346 347 348 348 348 348 350 348 347 354 355 357 356 1 13 15 9 4 359 358 3 9 20 29 35 30 64 90 106 113 117
327 331 337 338 336 338 342 343 345 346 347 346 345 345 347 347 350 349 350 347 346 352 353 356 356 2 13 13 9 6 6 13 18 34 43 55 63 72 85 94 96 96 108
313 322 327 330 333 335 338 343 343 343 344 346 346 345 346 348 350 349 348 347 347 347 355 355 354 4 16 16 12 13 20 31 41 55 60 68 74 78 80 82 86 93 103
301 312 320 326 327 331 337 338 338 341 343 346 346 347 346 347 348 350 349 346 344 342 353 352 354 6 19 22 19 24 29 41 53 56 66 77 76 81 76 72 87 99 104
295 306 314 317 324 331 333 334 337 341 345 347 347 347 347 347 347 348 347 344 341 339 347 346 356 7 25 31 25 32 35 47 62 71 78 81 74 72 76 84 86 89 95
Height
5732 5729 5725 5722 5720 5717 5715 5714 5712 5711 5709 5708 5705 5702 5697 5693 5688 5683 5677 5671 5665 5658 5652 5645 5639 5632 5626 5619 5613 5607 5602 5597 5592 5588 5583 5580 5577 5575 5573 5571 5570 5568 5566
5725 5722 5720 5718 5716 5714 5712 5711 5709 5709 5707 5705 5700 5696 5692 5688 5683 5677 5670 5664 5656 5649 5641 5633 5625 5618 5611 5605 5599 5593 5587 5582 5577 5572 5568 5566 5564 5562 5560 5558 5556 5555 5553
5719 5716 5715 5714 5713 5712 5711 5710 5708 5707 5704 5700 5697 5693 5688 5683 5677 5670 5663 5655 5647 5639 5631 5622 5614 5606 5599 5593 5587 5581 5575 5571 5567 5563 5559 5555 5552 5550 5548 5546 5544 5542 5540
5712 5712 5711 5711 5711 5711 5710 5708 5706 5704 5701 5698 5694 5689 5684 5678 5670 5662 5654 5646 5637 5629 5620 5611 5603 5596 5589 5582 5576 5571 5566 5561 5556 5553 5549 5546 5542 5539 5537 5536 5532 5529 5528
5707 5707 5708 5709 5709 5708 5707 5705 5704 5701 5698 5694 5690 5684 5677 5670 5662 5654 5646 5637 5628 5618 5609 5601 5594 5586 5578 5571 5565 5560 5555 5551 5546 5542 5539 5536 5533 5530 5527 5525 5523 5520 5518
5705 5706 5707 5708 5707 5706 5705 5704 5701 5698 5695 5690 5685 5678 5671 5663 5655 5648 5639 5629 5619 5609 5601 5593 5585 5577 5570 5563 5558 5552 5547 5542 5538 5533 5530 5527 5524 5521 5518 5515 5513 5511 5509
5707 5707 5708 5707 5706 5705 5703 5701 5699 5695 5690 5685 5679 5672 5666 5659 5650 5641 5632 5622 5611 5602 5594 5585 5577 5570 5562 5556 5550 5545 5539 5534 5530 5526 5522 5518 5515 5513 5510 5507 5505 5504 5502
5710 5709 5708 5707 5705 5704 5702 5699 5695 5691 5686 5680 5675 5668 5660 5653 5644 5635 5624 5614 5604 5595 5586 5578 5570 5562 5555 5549 5543 5537 5532 5527 5522 5518 5514 5511 5508 5506 5503 5501 5499 5497 5496
5712 5710 5709 5707 5705 5703 5700 5696 5692 5687 5683 5676 5670 5663 5656 5648 5639 5629 5618 5608 5597 5588 5579 5571 5564 5556 5550 5543 5537 5531 5526 5521 5516 5512 5507 5504 5501 5499 5498 5496 5494 5493 5491
5713 5711 5709 5707 5705 5702 5697 5693 5690 5686 5680 5674 5667 5660 5652 5643 5633 5623 5612 5600 5591 5582 5573 5564 5557 5550 5543 5538 5532 5526 5520 5515 5511 5507 5502 5498 5495 5492 5491 5491 5490 5488 5487
5713 5711 5709 5707 5705 5701 5697 5694 5689 5683 5678 5672 5665 5657 5648 5638 5627 5616 5605 5595 5586 5576 5567 5559 5551 5543 5536 5531 5525 5518 5513 5509 5504 5500 5497 5493 5489 5487 5485 5484 5484 5484 5483
5712 5711 5709 5707 5703 5701 5698 5693 5688 5683 5676 5668 5660 5651 5642 5632 5621 5609 5597 5588 5580 5571 5561 5553 5545 5537 5530 5524 5517 5511 5506 5501 5497 5493 5490 5487 5484 5481 5479 5478 5478 5479 5478
5712 5711 5709 5706 5703 5701 5697 5691 5685 5678 5671 5663 5654 5646 5636 5626 5615 5604 5593 5584 5574 5565 5556 5547 5538 5531 5524 5518 5511 5505 5500 5495 5491 5487 5484 5481 5477 5475 5474 5473 5473 5474 5474
5712 5710 5708 5705 5703 5699 5694 5689 5682 5675 5668 5659 5651 5643 5632 5621 5610 5600 5590 5581 5570 5561 5551 5542 5534 5526 5519 5513 5507 5501 5496 5491 5487 5483 5479 5475 5472 5469 5468 5468 5469 5470 5470
5710 5709 5707 5704 5701 5697 5692 5686 5679 5673 5664 5656 5649 5640 5629 5618 5607 5596 5586 5576 5566 5556 5545 5536 5529 5522 5516 5510 5504 5499 5494 5488 5483 5479 5475 5471 5468 5466 5464 5464 5465 5466 5468
5710 5707 5706 5703 5700 5695 5689 5683 5676 5669 5661 5653 5644 5635 5624 5613 5602 5592 5581 5571 5561 5551 5542 5533 5525 5518 5513 5507 5502 5497 5491 5487 5483 5478 5474 5469 5466 5463 5462 5461 5462 5463 5465
5708 5706 5704 5701 5698 5693 5687 5681 5673 5666 5658 5650 5641 5631 5620 5610 5598 5588 5578 5569 5558 5549 5540 5531 5523 5516 5511 5505 5500 5495 5491 5487 5482 5478 5473 5468 5464 5462 5461 5460 5460 5461 5463
5707 5705 5704 5701 5696 5691 5685 5679 5671 5664 5655 5647 5639 5628 5618 5607 5596 5585 5576 5566 5556 5548 5539 5531 5523 5516 5510 5505 5499 5495 5491 5487 5482 5477 5472 5467 5464 5461 5460 5460 5459 5460 5462
5706 5704 5702 5698 5694 5688 5682 5676 5669 5662 5653 5644 5635 5626 5615 5604 5593 5582 5572 5564 5555 5547 5539 5530 5523 5516 5511 5505 5500 5496 5492 5488 5483 5478 5473 5469 5465 5462 5460 5460 5460 5461 5462
5703 5702 5700 5696 5691 5685 5679 5673 5666 5659 5650 5641 5632 5622 5611 5601 5591 5581 5571 5562 5554 5546 5538 5531 5523 5517 5512 5506 5502 5498 5494 5489 5484 5479 5474 5470 5467 5464 5462 5461 5461 5462 5464
5702 5700 5696 5692 5687 5681 5676 5670 5663 5655 5647 5638 5628 5618 5609 5599 5589 5579 5569 5560 5552 5545 5537 5531 5524 5519 5513 5509 5505 5500 5495 5490 5484 5478 5474 5471 5469 5467 5464 5464 5464 5465 5467
5699 5696 5693 5689 5684 5678 5673 5667 5660 5652 5644 5635 5625 5615 5606 5596 5586 5577 5568 5559 5551 5544 5537 5531 5525 5520 5515 5511 5507 5502 5497 5491 5485 5480 5476 5473 5471 5469 5467 5467 5468 5469 5471
5696 5693 5689 5686 5681 5676 5670 5664 5657 5649 5641 5633 5622 5612 5603 5593 5584 5575 5566 5558 5550 5543 5537 5531 5526 5521 5517 5513 5509 5505 5499 5493 5487 5483 5481 5478 5476 5473 5473 5473 5474 5475 5476
5693 5690 5686 5682 5677 5672 5667 5659 5653 5646 5638 5630 5619 5609 5599 5590 5582 5573 5564 5556 5549 5542 5538 5532 5527 5523 5519 5516 5512 5507 5502 5497 5492 5489 5487 5485 5483 5482 5482 5481 5481 5482 5482
5688 5686 5682 5678 5673 5668 5663 5657 5651 5643 5635 5626 5615 5606 5596 5586 5578 5570 5563 5555 5548 5541 5537 5532 5527 5524 5521 5519 5515 5511 5506 5503 5499 5496 5494 5492 5491 5490 5489 5488 5488 5488 5489
5683 5681 5678 5674 5670 5665 5659 5654 5647 5639 5631 5622 5613 5603 5593 5583 5574 5566 5559 5552 5545 5539 5535 5531 5527 5526 5524 5521 5519 5514 5511 5508 5506 5503 5502 5500 5498 5498 5497 5497 5496 5496 5497